Flag for China Weather past 2 weeks in Foochow, Fujian, China

Now
75 °F

Light rain. Mostly cloudy.


Feels Like: 74 °F
Forecast: 72 / 78 °F
Wind: 8 mph from Northeast

Location: Fuzhou Airport

Current Time: Aug 29, 2015 at 8:52:28 PM

Latest Report: Aug 29, 2015 at 8:00 PM


Visibility: N/A

Pressure: 29.77 "Hg

Humidity: 94%

Dew point: 73 °F

Location of FoochowLocation

Historic Weather in Foochow — Graph

°F

Foochow temperature yesterday

Maximum temperature yesterday: 86 °F (at 12:00 PM)
Minimum temperature yesterday: 75 °F (at 12:00 AM)
Average temperature yesterday: 78 °F

Past Weeks' High & Low Weather Summary

 TemperatureHumidityPressure
High91 °F (Aug 24, 12:00 PM)100% (Aug 19, 8:00 AM)29.86 "Hg (Aug 19, 8:00 AM)
Low73 °F (Aug 29, 2:00 AM)43% (Aug 26, 11:00 AM)29.45 "Hg (Aug 23, 2:00 PM)
Average81 °F83%29.70 "Hg
* Reported Aug 14 7:00 PM — Aug 29 7:00 PM, Foochow, Weather by CustomWeather, © 2015

Note: Actual official high and low records may vary slightly from our data, if they occured in-between our weather recording intervals... More about our weather records

Advertising

Foochow weather history for previous 24 hours

 ConditionsComfort  
Time TempWeatherWind HumidityBarometerVisibility
7:00 PM
Sat, Aug 29
75 °FLight rain. Passing clouds.10 mph94%29.74 "Hg4 mi
6:00 PM75 °FLight rain. Partly sunny.8 mph94%29.74 "Hg4 mi
5:00 PM77 °FLight rain. Partly sunny.15 mph89%29.74 "Hg5 mi
4:00 PM81 °FPartly sunny.15 mph79%29.71 "HgN/A
3:00 PM81 °FMostly cloudy.15 mph79%29.71 "HgN/A
2:00 PM81 °FPartly sunny.13 mph74%29.74 "HgN/A
1:00 PM81 °FPartly sunny.8 mph74%29.74 "HgN/A
12:00 PM79 °FMore clouds than sun.10 mph79%29.74 "HgN/A
11:00 AM79 °FBroken clouds.6 mph79%29.77 "HgN/A
10:00 AM77 °FBroken clouds.6 mph83%29.77 "Hg6 mi
9:00 AM77 °FPartly sunny.6 mph83%29.77 "Hg6 mi
8:00 AM77 °FMostly cloudy.10 mph83%29.77 "HgN/A
7:00 AM75 °FPartly sunny.8 mph89%29.77 "HgN/A
6:00 AM75 °FPartly sunny.1 mph89%29.74 "HgN/A
5:00 AM75 °FMostly cloudy.1 mph89%29.74 "HgN/A
4:00 AM75 °FLight rain. Mostly cloudy.3 mph94%29.74 "Hg4 mi
3:00 AM75 °FSprinkles. Fog.1 mph94%29.74 "Hg2 mi
2:00 AM73 °FSprinkles. Fog.1 mph94%29.74 "Hg2 mi
1:00 AM75 °FSprinkles. Mostly cloudy.6 mph94%29.74 "Hg3 mi
12:00 AM77 °FOvercast.3 mph89%29.74 "HgN/A
11:00 PM
Fri, Aug 28
77 °FPassing clouds.13 mph89%29.74 "HgN/A
10:00 PM77 °FPartly cloudy.15 mph89%29.74 "HgN/A
9:00 PM77 °FMostly cloudy.8 mph89%29.77 "HgN/A
8:00 PM77 °FMostly cloudy.10 mph89%29.77 "HgN/A
Weather by CustomWeather, © 2015

See weather overviewHow to use our weather pages